Tracking 19283 objects as of 17-Nov-2018
HD Live streaming from Space Station
objects crossing your sky now

COSMOS 539

Track COSMOS 539 now!
10-day predictions
COSMOS 539 is classified as:


NORAD ID: 6319
Int'l Code: 1972-102A
Perigee: 1,349.1 km
Apogee: 1,385.4 km
Inclination: 74.0 °
Period: 112.9 minutes
Semi major axis: 7738 km
RCS: 2.7132 m2 (large)
Launch date: December 21, 1972
Source: Commonwealth of Independent States (former USSR) (CIS)
Launch site: PLESETSK MISSILE AND SPACE COMPLEX (PKMTR)
aabbcc
Your satellite tracking list
Your tracking list is empty




NASA's NSSDC Master Catalog

Two Line Element Set (TLE):
1  6319U 72102A   18320.61612766 -.00000017 +00000-0 +11291-5 0  9998
2  6319 074.0149 169.3200 0023464 139.3531 274.9016 12.75387314137068
Source of the keplerian elements: AFSPC